Simultaneous Nadir Overpasses (SNOs) Predictions

Prediction of SNOs between METOP-B and TERRA Satellite Orbit:

Table of predicted SNOs for the next 14.0 days since TLE Epoch: 2/6/2016
Index Date (METOP-B) Time (METOP-B) Lat,Lon (METOP-B) SZA (METOP-B ) Date (TERRA) Time (TERRA) Lat,Lon (TERRA) SZA (TERRA ) Distance(km) Time Diff (sec)
1 02/06/2016 12:50:48 81.35, 34.99 99.38 02/06/2016 12:52:00 81.35, 35.08 99.42 1.52 72
2 02/06/2016 13:41:28 -81.35,-157.44 80.61 02/06/2016 13:41:27 -81.34,-157.42 80.62 0.80 1
3 02/06/2016 14:31:46 81.35, 18.96 100.38 02/06/2016 14:30:33 81.67, 18.37 100.48 36.93 73
4 02/09/2016 08:25:06 81.35, 101.37 98.49 02/09/2016 08:26:14 81.35, 101.50 98.53 2.29 68
5 02/09/2016 09:15:46 -81.35, -91.06 81.50 02/09/2016 09:15:41 -81.35, -90.98 81.50 1.52 5
6 02/12/2016 03:59:24 81.35, 167.71 97.57 02/12/2016 04:00:28 81.35, 167.84 97.61 2.12 64
7 02/12/2016 04:50:03 -81.36, -24.31 82.37 02/12/2016 04:49:54 -81.36, -24.23 82.37 1.45 9
8 02/14/2016 23:33:41 81.35,-125.58 96.66 02/14/2016 23:34:41 81.36,-125.53 96.70 0.98 60
9 02/15/2016 00:24:21 -81.35, 42.02 83.32 02/15/2016 00:24:08 -81.35, 42.04 83.33 0.46 13
10 02/17/2016 19:07:58 81.35, -59.30 95.68 02/17/2016 19:08:54 81.34, -59.37 95.69 1.52 56




NCC Satellite Simultaneous Nadir Overpasses (SNOs) Prediction Service
